Location: Caixon
(43.4106°N, 0.0273°E)
Time: 21:31:20
(UTC+00:00)

COSMOS 2406 - Pass Details

Date: 16 October 2021
Orbit: 843 x 863 km, 71.0° (Epoch: 07 December)

Event Time Altitude Azimuth Distance (km) Brightness Sun altitude
Exits shadow 04:44:25 27° 279° (W) 1,591 4.1 -17.2°
Maximum altitude 04:45:54 31° 306° (NW) 1,477 4.1 -16.9°
Drops below altitude 10° 04:50:59 10° 8° (N) 2,512 5.8 -16.0°
Sets 04:53:46 0° 19° (NNE) 3,452 6.7 -15.5°
